Location: Dvur Kralove nad Labem
(50.4330°N, 15.8170°E)
Time: 15:04:55
(UTC+02:00)

ISS - Pass Details

Date: 22 May 2018
Orbit: 402 x 407 km, 51.6° (Epoch: 24 May)

Event Time Altitude Azimuth Distance (km) Brightness Sun altitude
Rises 01:28:33 0° 279° (W) 2,319 0.0 -18.8°
Reaches altitude 10° 01:30:38 10° 282° (WNW) 1,459 -1.0 -18.8°
Maximum altitude 01:33:54 74° 7° (N) 423 -3.7 -18.7°
Drops below altitude 10° 01:37:10 10° 94° (E) 1,456 -0.9 -18.6°
Sets 01:39:15 0° 96° (E) 2,314 0.1 -18.5°
